Date,TemperatureHighF,TemperatureAvgF,TemperatureLowF,DewpointHighF,DewpointAvgF,DewpointLowF,HumidityHigh,HumidityAvg,HumidityLow,PressureMaxIn,PressureMinIn,WindSpeedMaxMPH,WindSpeedAvgMPH,GustSpeedMaxMPH,PrecipitationSumIn
2013-2-1,17.0,12.6,8.0,9.0,6.0,4.0,83,74,64,0.00,40.00,21,13,27,1.10
2013-2-2,25.0,18.8,13.0,23.0,15.3,7.0,94,85,75,0.00,40.00,11,6,17,12.81
2013-2-3,22.0,15.5,5.0,19.0,12.3,3.0,94,86,72,0.00,40.00,15,5,22,2.20
2013-2-4,25.0,20.8,17.0,23.0,18.7,14.0,97,91,82,0.00,40.00,9,4,12,8.33
2013-2-5,31.0,22.1,6.0,29.0,20.1,5.0,99,92,70,0.00,40.00,14,4,20,0.55
2013-2-6,39.0,25.5,9.0,29.0,16.2,7.0,94,69,40,0.00,40.00,14,4,20,0.00
2013-2-7,41.0,30.8,22.0,32.0,24.9,17.0,98,79,62,0.00,40.00,10,4,16,5.63
2013-2-8,33.0,28.9,15.0,33.0,25.0,14.0,99,85,62,0.00,40.00,16,7,25,3.38
2013-2-9,31.0,21.8,10.0,25.0,17.1,9.0,97,83,60,0.00,40.00,7,3,12,0.00
2013-2-10,46.0,32.6,21.0,46.0,28.8,20.0,99,86,67,0.00,40.00,9,4,15,4.49
2013-2-11,46.0,38.3,32.0,46.0,31.6,23.0,99,76,66,0.00,40.00,27,17,40,0.00
2013-2-12,36.0,32.0,29.0,26.0,24.6,23.0,79,73,66,0.00,40.00,20,10,29,0.00
2013-2-13,43.0,32.2,26.0,31.0,26.1,23.0,94,79,55,0.00,40.00,9,4,12,0.00
2013-2-14,42.0,36.5,32.0,37.0,32.4,26.0,96,85,67,0.00,40.00,22,10,32,0.00
2013-2-15,34.0,29.5,21.0,27.0,21.4,15.0,86,71,56,0.00,40.00,16,8,21,0.00
2013-2-16,26.0,21.3,15.0,22.0,16.1,7.0,94,80,54,0.00,40.00,19,8,24,0.00
2013-2-17,28.0,19.7,14.0,17.0,12.0,7.0,91,74,45,0.00,40.00,12,5,18,0.00
2013-2-18,52.0,35.9,21.0,42.0,26.7,15.0,86,69,52,0.00,40.00,12,6,26,1.10
2013-2-19,46.0,26.5,16.0,44.0,22.9,12.0,99,86,68,0.00,40.00,25,17,35,12.90
2013-2-20,23.0,19.9,17.0,19.0,15.7,13.0,91,83,72,0.00,40.00,18,12,28,13.28
2013-2-21,28.0,23.7,21.0,20.0,17.8,16.0,84,77,71,0.00,40.00,13,6,21,0.00
2013-2-22,35.0,28.4,22.0,35.0,27.4,18.0,99,95,83,0.00,40.00,12,6,22,7.32
2013-2-23,34.0,29.6,27.0,32.0,22.5,20.0,90,74,64,0.00,40.00,15,9,22,0.00
2013-2-24,35.0,30.0,26.0,28.0,24.5,20.0,87,79,69,0.00,40.00,13,6,18,0.00
2013-2-25,42.0,30.9,18.0,32.0,24.7,18.0,99,79,54,0.00,40.00,7,2,12,0.00
2013-2-26,34.0,31.7,30.0,33.0,28.8,26.0,99,88,79,0.00,40.00,13,6,24,3.34
2013-2-27,35.0,34.0,32.0,35.0,34.0,32.0,99,99,99,0.00,40.00,12,8,16,16.74
2013-2-28,39.0,35.2,32.0,35.0,32.0,29.0,99,88,73,0.00,40.00,12,7,19,3.85